Regional Weather Roundup
Issued by NWS

Home | Current Version | Previous Version | Text Only | Print | Product List | Glossary On
Versions: 1 2 3 4 5 6 7 8 9 10 11 12 13 14 15 16 17 18 19 20 21 22 23 24 25 26 27 28 29 30 31 32 33 34 35 36 37 38 39 40 41 42 43 44 45 46 47 48 49 50
741
ASUS45 KREV 052210
RWRNV
NEVADA REGIONAL WEATHER ROUNDUP
NATIONAL WEATHER SERVICE RENO NV
200 PM PST FRI FEB 05 2016

NOTE: "FAIR" INDICATES FEW OR NO CLOUDS BELOW 12,000 FEET WITH NO
SIGNIFICANT WEATHER AND/OR OBSTRUCTIONS TO VISIBILITY.

NVZ001-003-004-052300-
WESTERN NEVADA

CITY           SKY/WX    TMP DP  RH WIND       PRES   REMARKS
RENO           PTSUNNY   45  26  47 CALM      30.46F
CARSON CITY    FAIR      43  32  65 E13       30.45F
MINDEN         FAIR      41  25  52 SW3       30.46F
SLIDE MTN        N/A     34  16  47 W20         N/A
PYRAMID LAKE     N/A     41 N/A N/A E6          N/A
FALLON         PTSUNNY   38  28  67 W3        30.49F
LOVELOCK       SUNNY     44  28  53 CALM      30.48F
HAWTHORNE      SUNNY     37  30  75 CALM      30.49F
$$

NVZ002-CAZ072-073-052300-
NORTHERN AND CENTRAL SIERRA

CITY           SKY/WX    TMP DP  RH WIND       PRES   REMARKS
S. LAKE TAHOE  SUNNY     43  23  45 NE8       30.43S
TRUCKEE        PTSUNNY   39  27  60 CALM      30.44F
SQUAW VLY 8000   N/A     37  21  52 S7          N/A
SUSANVILLE     SUNNY     39  32  75 CALM      30.48F
BLUE CANYON    SUNNY     48  22  35 S9        30.44F
MAMMOTH LAKES  FAIR      41  14  33 SE3       30.46S
BRIDGEPORT     FAIR      48  13  24 CALM      30.39F
$$

NVZ030-031-036-052300-
NORTHERN NEVADA

CITY           SKY/WX    TMP DP  RH WIND       PRES   REMARKS
ELKO           SUNNY     28  19  69 SW5       30.51F
WINNEMUCCA     SUNNY     39  27  62 NE12      30.49S
WENDOVER       SUNNY     36  25  64 SE7       30.52S
$$

NVZ035-037-052300-
CENTRAL NEVADA

CITY           SKY/WX    TMP DP  RH WIND       PRES   REMARKS
ELY            SUNNY     25  17  72 S7        30.48F
EUREKA           N/A      1  32 100 SW3       30.50S
$$

NVZ013-014-052300-
SOUTH CENTRAL NEVADA

CITY           SKY/WX    TMP DP  RH WIND       PRES   REMARKS
TONOPAH        SUNNY     33  21  61 CALM      30.48F
$$

NVZ017-020-022-052300-
SOUTHERN NEVADA

CITY           SKY/WX    TMP DP  RH WIND       PRES   REMARKS
LAS VEGAS      MOSUNNY   58  20  22 NE9       30.41F
N. LAS VEGAS   SUNNY     58  22  24 E5        30.44F
NELLIS AFB     SUNNY     59  22  24 N14       30.43F
HENDERSON      SUNNY     56  22  26 N13       30.45F
MERCURY        SUNNY     55  23  28 NE7       30.44S
$$




USA.gov is the U.S. government's official web portal to all federal, state and local government web resources and services.